Vertical_Velocity
-2 -1 -2 -2 0 -1 -2 -5 -3 -3 1 5 4 3 2 0 -2 -2 -6 -6 -7 -3 -1 2 2 -0 -3 -1 1 7 5 -3 -2 -0 1 -14 1 1 2 -3 -1 -2 -1
0 -4 -3 -3 -2 -1 -3 -1 -3 -0 1 -2 -3 1 -0 -4 -6 -7 -8 -8 -6 -3 -3 1 1 4 3 -2 -2 -1 6 -10 -10 -2 -2 14 -18 3 -2 0 -4 -3 -2
0 -4 -5 -3 -4 -2 -2 -2 -1 1 -2 -0 -0 -3 -5 -4 -1 0 1 2 1 -2 -2 -2 -2 -1 -2 -1 -0 3 2 5 -5 -13 -6 10 2 -9 -1 1 -5 -2 -1
-2 -5 -5 -2 -2 -1 -2 -1 -1 -1 0 0 -1 -4 -6 -4 -8 -7 -8 -6 -2 -5 -3 -2 -1 -2 -2 -2 -2 0 2 -0 1 -7 -10 -13 5 -7 -9 1 -3 -1 -2
-3 -5 -4 -2 -2 -0 -3 -2 1 -2 -2 -2 -2 -4 -2 -5 -5 -4 -6 -4 -8 -5 -3 -3 -1 -0 -1 -3 -0 0 -2 -3 -2 -3 1 0 -10 7 -4 -12 -2 -2 -5
-5 -4 -4 -2 -4 -2 -4 -1 -2 -1 1 -3 -4 -5 -4 -3 -0 2 2 -2 -2 -0 -4 -5 -4 -3 -1 0 2 -0 -2 2 3 -1 -8 -4 6 -4 3 4 -8 -5 -5
-2 -2 -1 1 -3 -3 -2 0 -0 -1 -2 -4 -3 -3 -4 -0 -1 -3 -1 3 1 3 3 0 1 1 1 -0 1 -0 -2 -2 1 2 -1 -4 -3 0 -2 8 3 -9 -8
-1 -2 -0 -1 -3 -0 0 -0 1 -2 -5 -1 -1 -1 -0 -0 -2 -2 -1 -4 -2 -2 -2 -1 -3 -3 -1 -3 -3 -4 -0 -3 -3 -1 -2 -3 -2 -2 -3 -1 6 8 -6
-2 -4 -1 -1 -1 -0 -1 -1 -3 -3 -1 -1 -1 -1 -3 -1 2 -1 1 2 -5 -1 -2 -2 -4 -1 -2 -2 -2 -0 -1 -2 -3 -5 -1 2 -3 -1 -4 -1 -0 1 1
-3 -3 0 0 -1 -1 -3 -4 -0 2 1 -1 -4 -2 1 3 -0 0 1 -1 -3 -5 0 1 -2 -3 -1 -3 -1 -5 -4 -2 -3 -4 -5 -2 1 -1 -1 -2 -0 1 -4
-3 -0 -0 -0 -2 -2 -4 -2 1 -1 -2 -2 -2 1 -2 -2 1 0 -1 -2 -2 -3 -3 -1 -1 0 -2 -1 -5 -5 -3 -1 -3 -4 -4 -6 1 -1 0 0 -1 1 -1
1 1 0 -1 -1 -2 -1 1 -1 -1 -1 -1 2 1 -0 -1 -2 -1 -1 1 -1 -3 -1 -2 -1 -2 -3 -4 -2 -4 -3 -2 -1 -1 -3 -1 -1 -2 3 1 1 2 -1
3 -0 -1 -2 0 -1 -0 -2 -2 1 1 0 -2 -2 -4 -1 -0 -0 -0 2 -1 -1 -2 -2 -1 -1 0 -2 -4 -4 -4 -3 1 1 2 1 2 -3 4 1 -0 2 -0
-1 -3 -1 -0 -1 -2 -1 -0 -0 1 -2 -1 -3 -2 -2 -2 -1 1 -0 1 0 0 -3 -2 -2 -2 -1 -1 -4 -2 -2 -2 -1 0 1 4 1 -0 3 2 1 2 0
-4 -1 -3 -1 -1 -0 1 2 0 -3 -2 1 0 2 2 0 -2 -3 -2 -1 -1 -1 -2 -3 -4 -3 -2 -1 -2 -2 -1 -0 -1 -1 0 2 2 3 -0 3 2 0 7
-2 -1 -1 -0 0 -1 -0 -1 -1 -1 -0 -1 -4 -2 -1 -1 0 -2 -2 0 -1 -2 -2 -3 -2 -3 -2 -3 -1 0 -0 -1 -1 -3 -1 1 3 3 3 2 1 3 -2
-1 0 -1 -1 -0 -2 -2 -1 -1 -2 -2 -4 -1 0 1 -0 1 -1 -2 -1 -1 -0 -2 -1 -2 1 -4 -3 -4 -3 -0 0 0 -2 -2 2 2 2 5 3 3 4 -0
-0 0 -2 -2 -2 -1 1 -0 -1 -0 -1 -3 -1 -2 -1 -1 -1 -1 -2 -1 1 1 0 -1 1 -2 -5 -6 -5 -2 -1 -0 1 -0 -2 2 2 -0 6 1 -0 6 3
-1 -4 -2 -0 -1 1 -2 -1 2 -0 -1 -2 -2 0 -1 -1 -1 -0 -2 1 1 -2 -1 1 -0 -4 -5 -3 -1 -1 -1 1 1 1 -1 1 2 1 4 3 1 2 3
-4 -3 0 1 -1 -2 -1 1 0 -3 -1 -3 -0 -2 -0 -0 -1 -1 -1 4 1 0 -0 -2 -2 -8 -1 0 -1 -2 -3 -1 1 1 1 0 1 2 1 7 2 1 2
-2 1 -1 -2 -2 -1 -0 2 2 -4 -2 -1 -1 1 -1 -2 -2 0 -1 -0 -2 -2 -1 -1 -4 -9 -1 1 1 -1 -2 -2 1 -1 -1 1 0 1 -1 3 5 5 2
-0 -2 -1 0 -0 1 -1 0 -1 -4 -1 -3 -3 -2 -2 -2 -2 -0 -2 -1 -4 -4 -2 -3 -5 -3 -1 3 2 2 2 -0 -2 0 0 1 2 1 0 -0 3 3 4
-2 -2 1 -1 2 2 2 -2 -2 -3 0 1 -3 -1 -1 -1 -2 -3 -3 -2 -2 -2 -1 -1 1 -1 -0 -2 3 2 1 3 2 1 1 -0 0 2 2 -1 -0 5 4
-2 -2 -1 0 0 0 -1 -3 -2 1 2 -2 -2 -2 -1 -2 -0 1 -2 -3 -5 -3 -3 -2 -0 2 4 2 3 -2 -3 -5 -2 0 1 2 0 -0 2 2 1 -1 2
-1 -1 -1 -1 -1 -1 -3 -1 -1 -2 2 -2 -2 -2 -0 1 -1 -2 -0 1 -0 1 2 3 1 0 3 3 0 -1 0 -1 -2 -2 -2 -1 0 0 -0 0 2 1 0
-1 0 0 -0 -2 -0 -2 0 -2 -2 1 -1 -2 -1 -1 0 2 2 -0 -1 -0 -2 -3 -4 -1 -1 -1 -4 -1 -1 -3 -2 -3 0 3 1 -0 2 1 -1 0 1 1
Height
5835 5829 5822 5816 5810 5803 5793 5785 5777 5767 5758 5749 5741 5730 5719 5708 5696 5683 5670 5658 5645 5632 5621 5610 5602 5595 5590 5585 5580 5574 5567 5560 5555 5548 5540 5533 5530 5525 5518 5515 5520 5523 5530
5830 5824 5816 5809 5804 5795 5787 5778 5768 5759 5751 5743 5732 5721 5709 5698 5685 5672 5658 5645 5632 5621 5611 5601 5592 5586 5579 5574 5569 5563 5557 5548 5543 5537 5530 5523 5515 5512 5507 5503 5506 5510 5515
5825 5818 5810 5804 5796 5788 5780 5770 5761 5752 5744 5734 5722 5710 5698 5685 5673 5660 5649 5638 5626 5613 5601 5591 5582 5576 5569 5564 5559 5553 5547 5539 5530 5524 5518 5513 5505 5500 5496 5494 5494 5495 5498
5820 5812 5805 5797 5789 5781 5772 5763 5754 5745 5735 5724 5713 5702 5692 5679 5666 5652 5640 5627 5615 5603 5591 5581 5573 5566 5560 5554 5548 5543 5536 5529 5521 5513 5505 5500 5496 5489 5485 5484 5482 5482 5485
5814 5806 5797 5789 5782 5774 5765 5756 5747 5737 5726 5715 5704 5694 5681 5667 5654 5641 5627 5615 5604 5593 5582 5573 5564 5558 5551 5545 5539 5533 5526 5519 5511 5504 5496 5489 5483 5479 5475 5471 5473 5473 5474
5807 5799 5791 5783 5776 5767 5757 5748 5738 5728 5717 5707 5696 5683 5671 5658 5644 5632 5620 5608 5597 5585 5575 5565 5557 5550 5543 5536 5530 5523 5516 5508 5500 5493 5486 5480 5474 5468 5465 5462 5461 5464 5465
5800 5792 5785 5777 5769 5759 5750 5741 5731 5720 5710 5699 5686 5674 5662 5649 5637 5624 5612 5600 5588 5576 5567 5558 5549 5541 5534 5527 5520 5512 5504 5496 5489 5482 5476 5469 5463 5458 5453 5451 5449 5451 5454
5794 5787 5779 5771 5763 5753 5743 5734 5723 5713 5702 5690 5678 5666 5653 5639 5627 5614 5601 5590 5578 5568 5558 5549 5540 5532 5525 5517 5509 5500 5492 5484 5477 5470 5464 5458 5453 5447 5443 5441 5439 5438 5439
5789 5781 5773 5766 5757 5747 5737 5727 5717 5705 5693 5681 5670 5657 5643 5630 5617 5604 5591 5580 5569 5559 5549 5540 5532 5523 5515 5507 5498 5490 5481 5473 5465 5458 5453 5448 5442 5437 5432 5429 5429 5428 5429
5782 5774 5767 5759 5749 5739 5730 5719 5707 5696 5685 5673 5660 5646 5633 5620 5608 5596 5583 5572 5561 5550 5541 5532 5523 5514 5506 5497 5487 5477 5468 5460 5452 5445 5439 5434 5430 5425 5422 5418 5417 5417 5419
5776 5768 5761 5752 5741 5731 5720 5709 5699 5689 5676 5663 5649 5635 5623 5612 5601 5589 5576 5563 5552 5543 5534 5525 5516 5506 5497 5486 5475 5465 5455 5446 5437 5430 5424 5420 5416 5414 5410 5408 5407 5408 5409
5769 5762 5753 5742 5733 5723 5712 5702 5692 5680 5667 5654 5640 5628 5617 5605 5593 5581 5568 5556 5545 5536 5526 5517 5508 5497 5486 5475 5462 5450 5440 5430 5421 5414 5410 5406 5403 5402 5400 5399 5399 5399 5400
5762 5753 5743 5735 5725 5715 5706 5695 5684 5671 5658 5645 5633 5620 5608 5596 5584 5572 5561 5549 5539 5529 5520 5510 5500 5488 5476 5462 5448 5435 5424 5414 5407 5401 5398 5395 5393 5392 5392 5391 5391 5391 5392
5753 5744 5736 5727 5718 5709 5699 5687 5675 5662 5650 5638 5624 5612 5600 5588 5577 5565 5555 5544 5534 5523 5513 5503 5491 5479 5464 5449 5436 5424 5414 5406 5399 5393 5390 5387 5386 5384 5385 5384 5384 5384 5387
5745 5737 5729 5720 5711 5702 5691 5678 5666 5654 5640 5627 5616 5604 5592 5581 5569 5559 5548 5538 5528 5518 5507 5495 5483 5469 5454 5442 5432 5422 5412 5403 5396 5389 5385 5382 5381 5380 5379 5380 5380 5382 5385
5738 5730 5721 5712 5704 5694 5682 5670 5656 5643 5632 5620 5609 5597 5585 5574 5563 5553 5543 5533 5523 5513 5501 5489 5475 5461 5450 5441 5431 5422 5412 5403 5394 5387 5383 5380 5378 5378 5377 5378 5379 5381 5385
5730 5723 5713 5704 5696 5684 5673 5660 5648 5636 5625 5614 5603 5591 5580 5569 5558 5549 5539 5529 5519 5509 5497 5483 5471 5460 5450 5440 5430 5420 5410 5401 5393 5387 5383 5380 5377 5377 5377 5377 5378 5381 5385
5723 5714 5705 5697 5686 5675 5664 5652 5641 5629 5618 5607 5597 5585 5575 5564 5554 5545 5536 5526 5517 5506 5493 5480 5470 5460 5449 5438 5428 5418 5409 5401 5394 5388 5384 5381 5378 5377 5378 5378 5379 5382 5385
5714 5706 5697 5688 5677 5667 5656 5644 5633 5622 5612 5601 5591 5581 5570 5561 5552 5543 5534 5524 5514 5502 5490 5479 5470 5460 5449 5439 5429 5420 5411 5403 5395 5390 5386 5383 5381 5379 5380 5381 5382 5384 5387
5705 5697 5689 5680 5669 5659 5648 5637 5627 5616 5607 5596 5585 5576 5567 5558 5550 5541 5532 5524 5513 5501 5488 5478 5470 5460 5451 5442 5431 5422 5413 5405 5399 5393 5389 5386 5384 5382 5382 5385 5385 5388 5392
5698 5690 5681 5671 5661 5652 5641 5630 5620 5611 5602 5591 5582 5573 5564 5556 5548 5540 5530 5521 5511 5498 5487 5478 5471 5462 5454 5445 5435 5425 5417 5411 5404 5397 5393 5390 5388 5386 5385 5386 5389 5391 5395
5689 5681 5673 5664 5655 5645 5635 5624 5615 5606 5597 5587 5579 5570 5561 5554 5547 5539 5530 5520 5509 5497 5487 5477 5470 5464 5456 5448 5439 5430 5423 5416 5409 5403 5398 5395 5392 5390 5390 5390 5392 5394 5398
5682 5674 5666 5657 5648 5638 5627 5617 5609 5601 5592 5584 5576 5568 5560 5553 5546 5538 5529 5519 5509 5498 5488 5478 5471 5466 5459 5451 5444 5436 5429 5422 5416 5409 5404 5399 5397 5395 5395 5394 5395 5397 5400
5672 5665 5657 5649 5640 5630 5619 5612 5605 5597 5588 5581 5574 5566 5559 5553 5546 5538 5529 5520 5510 5500 5489 5479 5472 5469 5463 5455 5448 5440 5434 5427 5421 5414 5409 5405 5402 5400 5399 5399 5400 5402 5404
5664 5656 5648 5640 5632 5622 5614 5607 5600 5594 5586 5579 5572 5565 5559 5553 5546 5539 5531 5522 5514 5504 5493 5482 5474 5471 5467 5460 5452 5445 5439 5433 5426 5418 5414 5411 5408 5406 5405 5405 5405 5407 5408
5655 5647 5640 5632 5624 5616 5609 5602 5596 5590 5583 5577 5571 5565 5559 5554 5548 5541 5532 5524 5516 5506 5495 5485 5477 5473 5469 5462 5456 5450 5444 5438 5431 5426 5422 5418 5415 5412 5410 5410 5410 5411 5413